www.pogodaiklimat.ru

Погода и климат >> Архив погоды >> Россия >> Нижегородская область >> Нижний Новгород


АРХИВ ПОГОДЫ в Нижнем Новгороде

Время (UTC), дата Ветер
(напр.,м/с)
 
Видим.   Явления Облачность Т
(С)
Тd
(С)
f
(%)
Тe
(С)
Тes
(С)
Комфортность P
(гПа)
Po
(гПа)
Тmin
(С)
Tmax
(С)
R
(мм)
R24
(мм)
S
(см)
21 12.08 штиль 0
{1}
10 км ясно +14.1 +12.4 89 +14 +14 по сезону 1017.2 998.4
00 13.08 штиль 0 10 км ясно +12.8 +11.7 93 +12 +12 по сезону 1017.1 998.2
03 13.08 штиль 0
{1}
10 км ясно +14.5 +13.6 94 +14 +15 по сезону 1018.5 999.7 +12.6
06 13.08 В 1-2
{2}
10 км ясно +21.4 +13.6 61 +24 +33 комфорт 1018.2 1000.0
09 13.08 С 1-3
{4}
10 км 3/3 1000 м
[Cu hum]
+23.3 +11.0 46 +26 +35 жарко 1018.2 1000.0
12 13.08 ЮВ 1-3
{4}
10 км 3/0
[Ac trans]
+24.6 +11.5 44 +26 +33 жарко 1017.9 999.8
15 13.08 В 1-2
{4}
10 км ясно +23.9 +12.0 47 +26 +27 жарко 1017.0 998.9 +25.0
18 13.08 ЮВ 1-2
{3}
10 км ясно +19.9 +12.8 64 +23 +23 комфорт 1017.5 999.1
21 13.08 штиль 0-2
{4}
10 км ясно +17.1 +12.6 75 +17 +17 тепло 1017.9 999.3
00 14.08 штиль 0-2
{3}
10 км 1/0 2000 м
[Ac trans]
+15.7 +12.2 80 +16 +16 тепло 1018.3 999.7
03 14.08 ЮВ 1-2
{3}
10 км ясно +16.7 +12.5 76 +18 +18 тепло 1018.3 999.7 +15.5
06 14.08 ЮВ 2-4
{4}
10 км ясно +22.2 +13.8 59 +25 +32 комфорт 1018.2 1000.0
09 14.08 Ю 2-6
{6}
10 км 8/6 600 м
[Cu hum Ci fib]
+24.8 +13.3 49 +27 +31 жарко 1017.6 999.5
12 14.08 Ю 2-4
{6}
10 км 4/4 600 м
[Cu hum]
+26.3 +13.4 45 +28 +33 жарко 1017.2 999.2
15 14.08 ЮВ 1-3
{6}
10 км 6/0
[Ci fib]
+25.4 +13.9 49 +28 +29 жарко 1016.7 998.7 +26.8
18 14.08 штиль 0
{3}
10 км 8/3 600 м
[Sc Ac trans Ci fib]
+20.4 +14.6 69 +23 +23 комфорт 1017.6 999.2
21 14.08 штиль 0
{2}
10 км 8/3 600 м
[Sc Ac trans Ci fib]
+19.3 +14.3 73 +21 +21 комфорт 1017.7 999.3
00 15.08 З 1-3
{3}
10 км слабый дождь 10/6 600 м
[Sc Ac trans]
+19.2 +14.8 76 +22 +22 комфорт 1018.3 999.8
03 15.08 Ю 1-3
{4}
20 км 9/8 600 м
[Sc Ac cast]
+13.7 +10.6 82 +14 +14 по сезону 1019.4 995.5 +11.3
06 15.08 СЗ 1-3
{4}
10 км сильная гроза, ливневой дождь 10/9 300 м
[Cb cap Ac As]
+17.9 +16.9 94 +19 +19 тепло 1020.2 1001.7
09 15.08 С 1-1
{4}
10 км {гроза, ливн. осадки} 10/10 300 м
[St]
+19.2 +17.9 92 +22 +22 комфорт 1021.3 1002.9
12 15.08 СВ 2-2
{6}
10 км {гроза, ливн. осадки} 9/5 600 м
[Cb cap Ac trans Ci fib]
+21.9 +15.8 68 +26 +28 душно 1021.9 1003.6
15 15.08 С 1-3
{6}
10 км ясно +22.2 +15.1 64 +26 +27 душно 1022.4 1004.1 +22.7 3
18 15.08 штиль 0
{6}
10 км 1/1 600 м
[Sc diur, vesp]
+18.0 +15.2 84 +18 +18 тепло 1024.5 1005.9
21 15.08 СВ 1-5
{6}
10 км 3/3 600 м
[Sc diur, vesp]
+16.9 +13.1 78 +18 +18 тепло 1025.5 1006.8
00 16.08 СВ 1-3
{5}
10 км 8/0
[Ac trans]
+15.5 +12.9 84 +16 +16 тепло 1026.7 1007.8
03 16.08 СВ 1-4
{4}
10 км ясно +15.3 +12.9 86 +16 +17 по сезону 1027.7 1008.8 +14.3
06 16.08 В 1-4
{4}
10 км 3/1 1000 м
[Sc diur, vesp Ac trans]
+19.1 +14.7 76 +22 +28 комфорт 1028.4 1009.8
09 16.08 -3
{5}
10 км н/о +21.9 +10.9 50 +24 +29 комфорт 1028.5 1010.1
12 16.08 СВ 2-4
{6}
10 км 4/4 1000 м
[Cu med, cong]
+23.1 +10.9 46 +25 +30 комфорт 1028.2 1009.8
15 16.08 СВ 1-2
{5}
10 км ясно +21.5 +10.4 49 +23 +24 комфорт 1027.9 1009.3 +23.3
18 16.08 штиль 0-1
{3}
10 км ясно +16.9 +10.2 65 +17 +17 по сезону 1028.3 1009.5
21 16.08 штиль 0-1
{3}
10 км ясно +15.5 +10.9 74 +15 +15 по сезону 1028.9 1010.0
00 17.08 штиль 0
{1}
10 км ясно +11.5 +10.3 92 +11 +11 прохладно 1029.5 1010.3
03 17.08 штиль 0
{1}
10 км ясно +13.8 +10.2 79 +13 +14 по сезону 1029.8 1010.8 +11.3
06 17.08 В 1-2
{3}
10 км ясно +20.1 +10.2 53 +23 +31 комфорт 1029.6 1011.0
09 17.08 В 2-5
{5}
10 км 3/3 1000 м
[Cu hum]
+21.7 +8.5 43 +23 +31 комфорт 1029.2 1010.7
12 17.08 В 1-5
{6}
10 км 3/3 1000 м
[Cu hum]
+23.4 +9.9 42 +25 +31 комфорт 1028.3 1009.9
15 17.08 В 1-3
{5}
10 км ясно +22.0 +11.2 50 +24 +25 комфорт 1027.4 1008.9 +23.6
18 17.08 В 1-2
{3}
10 км ясно +18.0 +10.4 61 +19 +19 тепло 1017.8 1009.1
21 17.08 ЮВ 1-2
{3}
10 км ясно +16.1 +10.6 70 +17 +17 тепло 1028.0 1009.2
00 18.08 штиль 0
{2}
10 км ясно +13.9 +10.0 77 +14 +14 по сезону 1027.9 1008.9
03 18.08 штиль 0
{2}
10 км 8/0
[Ac trans]
+13.5 +11.1 85 +13 +13 по сезону 1028.1 1009.1 +11.7
06 18.08 штиль 0
{2}
10 км 8/0
[Ac trans]
+19.6 +13.1 66 +21 +26 комфорт 1027.6 1009.0
09 18.08 Ю 2-4
{5}
10 км 6/6 1000 м
[Cu hum]
+24.0 +10.7 43 +25 +30 комфорт 1027.0 1008.7
12 18.08 -4
{5}
10 км н/о +24.9 +10.9 41 +26 +29 жарко 1025.9 1007.6
15 18.08 Ю 1-3
{4}
10 км 3/0
[Ac trans]
+22.8 +10.7 46 +25 +25 комфорт 1024.8 1006.5 +25.6
18 18.08 штиль 0
{3}
10 км ясно +17.2 +12.3 73 +17 +17 по сезону 1025.2 1006.5
21 18.08 штиль 0
{1}
10 км 3/0
[Ac trans]
+16.4 +11.0 70 +16 +16 по сезону 1024.9 1006.2
00 19.08 штиль 0
{1}
10 км 3/0
[Ac trans]
+14.6 +11.0 79 +14 +14 по сезону 1024.8 1006.0
03 19.08 штиль 0
{2}
10 км 4/0
[Ci fib]
+16.2 +11.5 74 +16 +17 по сезону 1024.9 1006.2 +14.5
06 19.08 З 1-2
{2}
10 км 4/0
[Cc]
+21.7 +12.7 57 +24 +31 комфорт 1024.8 1006.4
09 19.08 ЮЗ 2-4
{4}
10 км 9/0
[Ac cast Cc]
+25.5 +11.4 41 +27 +34 жарко 1024.2 1006.1
12 19.08 ЮЗ 1-4
{5}
10 км 9/1 1000 м
[Cu hum Ac cast Cc]
+26.6 +12.9 43 +28 +32 жарко 1023.8 1005.8
15 19.08 штиль 0-2
{5}
10 км 10/0
[Ac cast Cc]
+25.5 +15.5 54 +29 +29 душно 1023.0 1004.9 +27.0

 

Местоположение метеостанции Нижний Новгород (Нижегородская область, Россия): широта 56.27 долгота 44.00 высота над уровнем моря 157 м.

В архиве по умолчанию представлена погода в Нижнем Новгороде за последнюю неделю. Архивные данные за месяц целиком и за предыдущие месяцы, начиная с января 2011 года, Вы можете получить, выбрав интересующий диапазон дат из раскрывающегося списка и нажав кнопку "Ввод!".

Внимание! Время в таблицах - всемирное. Для получения местного времени необходимо прибавить поправку, которая в Нижнем Новгороде равна 3 ч.

Смотрите также архив погоды в соседних городах и на ближайших метеорологических станциях:

Погода в Нижнем Новгороде аэропорт (Нижегородская область, Россия) (15 км)
Погода в Дальнем Константиново (Нижегородская область, Россия) (53 км)
Погода в Волжской ГМО (Нижегородская область, Россия) (57 км)
Погода в Семенове (Нижегородская область, Россия) (60 км)
Погода в Павлово (Нижегородская область, Россия) (70 км)
Погода в Лысково (Нижегородская область, Россия) (70 км)
Погода в Арзамасе (Нижегородская область, Россия) (101 км)
Погода в Воскресенском (Нижегородская область, Россия) (106 км)
Погода в Вязниках (Владимирская область, Россия) (113 км)
Погода в Красных Баках (Нижегородская область, Россия) (119 км)

Пояснения к столбцам:

Ветер - указаны скорость ветра в м/с - средняя за 10 мин, порывы в срок и между сроками (в фигурных скобках) и направление, откуда дует ветер: С - северный, СВ - северо-восточный, В - восточный, ЮВ - юго-восточный, Ю - южный, ЮЗ - юго-западный, З - западный, СЗ - северо-западный.
Видимость - горизонтальная дальность видимости в метрах или километрах. При видимости от 1 до 10 км при отсутствии осадков обычно наблюдается дымка, при ухудшении видимости до 1 км и менее - туман. В сухую погоду видимость может ухудшаться дымом, пылью или мглою.
Явления - указаны атмосферные явления, наблюдавшиеся в срок или в последний час перед сроком; фигурными скобками обозначены явления, наблюдавшиеся между сроками (за 1-3 часа до срока); квадратными скобками обозначены град или гололедные отложения с указанием их диаметра в мм.
Облачность - указаны через наклонную черту общая и нижняя облачность в баллах и высота нижней границы облаков в метрах; квадратными скобками обозначены формы облаков: Ci - перистые, Cs - перисто-слоистые, Cc - перисто-кучевые, Ac - высококучевые, As - высокослоистые, Sc - слоисто-кучевые, Ns - слоисто-дождевые, Cu - кучевые, Cb - кучево-дождевые. Подробнее классификацию облаков см. в Атласе облаков (PDF).
T - Температура воздуха - температура, измеренная на высоте 2 м над землей.
Td - Температура точки росы - температура, при понижении до которой содержащийся в воздухе водяной пар достигнет насыщения.
f - Относительная влажность воздуха - влажноcть воздуха, измеренная на высоте 2 м над землей.
Te - Эффективная температура - температура, которую ощущает одетый по сезону человек в тени. Характеристика душности погоды. При расчете учитывается влияние влажности воздуха и скорости ветра на теплоощущения человека.
Tes - Эффективная температура на солнце - температура, которую ощущает человек, с поправкой на солнечный нагрев. Характеристика знойности погоды. Зависит от высоты солнца над горизонтом, облачности и скорости ветра. Ночью, в пасмурную погоду, а также при ветре 12 м/с и более поправка равна нулю.
P - Атмосферное давление - приведенное к уровню моря атмосферное давление.
Po - Атмосферное давление - измеренное на уровне метеостанции атмосферное давление.
Tmin - Минимальная температура - минимум температуры воздуха на высоте 2 м над землей.
Tmax - Максимальная температура - максимум температуры воздуха на высоте 2 м над землей.
R - Количество осадков - Количество выпавших осадков за период времени, мм. При наведении курсора мыши на число - период времени, за который выпало указанное количество осадков.
R24 - Количество осадков - Количество выпавших осадков за 24 часа, мм.
S - Снежный покров - Высота снежного покрова, см. При наведении курсора мыши на число - состояние снежного покрова и степень покрытия местности в баллах.